CCM26D LIMC-LFKF

Flight info

Callsign CCM26D
Flight time 0h 52m
Altitude 39000
Route ROBAS DCT LUKIM DCT TORTU
Aircraft A20N/M-SDE2E3FGHIRWXY/LB1

Departure

Time 2026-05-04 20:01
Airport Milan Malpensa International Airport (LIMC)

Arrival

Time 2026-05-04 20:53
Airport Figari Sud-Corse Airport (LFKF)
Time Latitude Longitude Altitude Speed Heading
2026-05-04 19:29 45.62223 8.71789 726 ft 0 kts 168°
2026-05-04 19:45 45.62233 8.71786 726 ft 2 kts 168°
2026-05-04 19:45 45.62247 8.71782 727 ft 2 kts 168°
2026-05-04 19:46 45.62262 8.71778 727 ft 2 kts 168°
2026-05-04 19:46 45.62273 8.71774 727 ft 0 kts 168°
2026-05-04 19:46 45.62286 8.71770 728 ft 2 kts 151°
2026-05-04 19:46 45.62297 8.71757 728 ft 2 kts 134°
2026-05-04 19:47 45.62306 8.71740 728 ft 2 kts 115°
2026-05-04 19:47 45.62310 8.71720 728 ft 2 kts 96°
2026-05-04 19:47 45.62310 8.71703 728 ft 0 kts 81°
2026-05-04 19:47 45.62309 8.71693 728 ft 0 kts 78°
2026-05-04 19:51 45.62310 8.71697 728 ft 1 kts 77°
2026-05-04 19:51 45.62313 8.71720 728 ft 3 kts 77°
2026-05-04 19:51 45.62321 8.71770 728 ft 6 kts 79°
2026-05-04 19:51 45.62331 8.71847 728 ft 9 kts 79°
2026-05-04 19:52 45.62345 8.71951 727 ft 11 kts 79°
2026-05-04 19:52 45.62363 8.72079 726 ft 14 kts 79°
2026-05-04 19:52 45.62346 8.72213 725 ft 14 kts 143°
2026-05-04 19:52 45.62243 8.72255 723 ft 16 kts 169°
2026-05-04 19:53 45.62129 8.72287 721 ft 17 kts 169°
2026-05-04 19:53 45.62007 8.72323 717 ft 18 kts 169°
2026-05-04 19:53 45.61875 8.72359 714 ft 19 kts 169°
2026-05-04 19:53 45.61737 8.72396 711 ft 21 kts 169°
2026-05-04 19:54 45.61589 8.72436 708 ft 22 kts 169°
2026-05-04 19:54 45.61436 8.72479 704 ft 22 kts 169°
2026-05-04 19:54 45.61283 8.72519 701 ft 22 kts 169°
2026-05-04 19:54 45.61137 8.72560 698 ft 18 kts 165°
2026-05-04 19:55 45.61079 8.72670 697 ft 14 kts 86°
2026-05-04 19:55 45.61097 8.72812 696 ft 15 kts 79°
2026-05-04 19:55 45.61121 8.72975 696 ft 18 kts 78°
2026-05-04 19:55 45.61145 8.73159 695 ft 19 kts 79°
2026-05-04 19:56 45.61180 8.73317 695 ft 17 kts 16°
2026-05-04 19:56 45.61291 8.73301 697 ft 15 kts 349°
2026-05-04 19:56 45.61389 8.73274 698 ft 13 kts 349°
2026-05-04 19:56 45.61480 8.73249 699 ft 12 kts 349°
2026-05-04 19:57 45.61566 8.73230 702 ft 12 kts
2026-05-04 19:57 45.61623 8.73300 702 ft 12 kts 74°
2026-05-04 19:57 45.61631 8.73423 701 ft 12 kts 104°
2026-05-04 19:57 45.61595 8.73527 700 ft 9 kts 108°
2026-05-04 19:58 45.61589 8.73601 699 ft 0 kts 90°
2026-05-04 19:58 45.61589 8.73622 699 ft 3 kts 86°
2026-05-04 19:59 45.61598 8.73670 699 ft 8 kts 67°
2026-05-04 19:59 45.61667 8.73723 700 ft 10 kts 357°
2026-05-04 19:59 45.61685 8.73720 700 ft 0 kts 351°
2026-05-04 20:00 45.61707 8.73714 701 ft 23 kts 349°
2026-05-04 20:00 45.62179 8.73579 711 ft 110 kts 349°
2026-05-04 20:00 45.63160 8.73307 749 ft 174 kts 348°
2026-05-04 20:00 45.64424 8.72960 1225 ft 197 kts 348°
2026-05-04 20:01 45.65839 8.72570 1908 ft 215 kts 348°
2026-05-04 20:01 45.67316 8.72236 2754 ft 221 kts
2026-05-04 20:01 45.68801 8.72829 3484 ft 233 kts 36°
2026-05-04 20:01 45.69793 8.74692 4056 ft 252 kts 71°
2026-05-04 20:02 45.69932 8.77247 4755 ft 266 kts 102°
2026-05-04 20:02 45.69117 8.79536 5701 ft 269 kts 134°
2026-05-04 20:02 45.67560 8.80916 6723 ft 270 kts 159°
2026-05-04 20:02 45.65841 8.81948 7696 ft 271 kts 147°
2026-05-04 20:03 45.64533 8.83864 8627 ft 274 kts 121°
2026-05-04 20:03 45.63740 8.86289 9568 ft 276 kts 115°
2026-05-04 20:03 45.62927 8.88764 10456 ft 279 kts 119°
2026-05-04 20:03 45.61973 8.91246 11023 ft 293 kts 122°
2026-05-04 20:04 45.60862 8.93787 11459 ft 311 kts 125°
2026-05-04 20:04 45.59628 8.96389 11850 ft 329 kts 127°
2026-05-04 20:04 45.58265 8.99131 12332 ft 344 kts 127°
2026-05-04 20:04 45.56858 9.01895 13038 ft 350 kts 128°
2026-05-04 20:05 45.55405 9.04710 13758 ft 355 kts 128°
2026-05-04 20:05 45.53923 9.07554 14467 ft 361 kts 129°
2026-05-04 20:05 45.52427 9.10412 15161 ft 365 kts 129°
2026-05-04 20:05 45.50897 9.13325 15856 ft 370 kts 129°
2026-05-04 20:06 45.49355 9.16249 16545 ft 374 kts 129°
2026-05-04 20:06 45.47794 9.19205 17218 ft 378 kts 129°
2026-05-04 20:06 45.46210 9.22203 17860 ft 383 kts 129°
2026-05-04 20:06 45.44595 9.25255 18520 ft 387 kts 129°
2026-05-04 20:07 45.42983 9.28299 19166 ft 391 kts 129°
2026-05-04 20:07 45.41359 9.31361 19801 ft 394 kts 129°
2026-05-04 20:07 45.39685 9.34511 20429 ft 398 kts 129°
2026-05-04 20:07 45.38029 9.37627 21039 ft 402 kts 129°
2026-05-04 20:08 45.36329 9.40821 21643 ft 405 kts 129°
2026-05-04 20:08 45.34634 9.44005 22235 ft 408 kts 129°
2026-05-04 20:08 45.32919 9.47221 22822 ft 412 kts 129°
2026-05-04 20:08 45.31187 9.50463 23381 ft 415 kts 129°
2026-05-04 20:09 45.29456 9.53703 23904 ft 419 kts 129°
2026-05-04 20:09 45.27684 9.57015 24410 ft 423 kts 129°
2026-05-04 20:09 45.25893 9.60358 24895 ft 427 kts 129°
2026-05-04 20:09 45.24100 9.63701 25358 ft 430 kts 129°
2026-05-04 20:10 45.22208 9.66944 25785 ft 431 kts 139°
2026-05-04 20:10 45.19755 9.69349 26195 ft 427 kts 158°
2026-05-04 20:10 45.16918 9.70539 26619 ft 423 kts 176°
2026-05-04 20:10 45.14018 9.70463 27016 ft 420 kts 193°
2026-05-04 20:11 45.11223 9.69419 27462 ft 420 kts 199°
2026-05-04 20:11 45.08431 9.68269 27849 ft 423 kts 199°
2026-05-04 20:11 45.05600 9.67111 28212 ft 426 kts 199°
2026-05-04 20:11 45.02708 9.65937 28586 ft 429 kts 199°
2026-05-04 20:12 44.99865 9.64788 28942 ft 432 kts 199°
2026-05-04 20:12 44.96968 9.63622 29295 ft 434 kts 199°
2026-05-04 20:12 44.94038 9.62447 29630 ft 436 kts 199°
2026-05-04 20:12 44.91124 9.61281 29949 ft 439 kts 199°
2026-05-04 20:13 44.88170 9.60099 30271 ft 440 kts 199°
2026-05-04 20:13 44.85239 9.58930 30677 ft 439 kts 199°
2026-05-04 20:13 44.82338 9.57774 31111 ft 438 kts 199°
2026-05-04 20:13 44.79403 9.56606 31561 ft 436 kts 199°
2026-05-04 20:14 44.76483 9.55447 31987 ft 433 kts 200°
2026-05-04 20:14 44.73611 9.54306 32397 ft 432 kts 200°
2026-05-04 20:14 44.70729 9.53161 32796 ft 430 kts 200°
2026-05-04 20:14 44.67892 9.52037 33145 ft 428 kts 200°
2026-05-04 20:15 44.65004 9.50894 33504 ft 427 kts 200°
2026-05-04 20:15 44.62165 9.49773 33883 ft 424 kts 200°
2026-05-04 20:15 44.59362 9.48664 34252 ft 422 kts 200°
2026-05-04 20:15 44.56529 9.47546 34570 ft 420 kts 200°
2026-05-04 20:16 44.53721 9.46435 34838 ft 419 kts 200°
2026-05-04 20:16 44.50935 9.45335 35061 ft 419 kts 201°
2026-05-04 20:16 44.48154 9.44239 35275 ft 416 kts 201°
2026-05-04 20:17 44.42564 9.42040 35284 ft 419 kts 201°
2026-05-04 20:17 44.39796 9.40953 34757 ft 417 kts 201°
2026-05-04 20:17 44.37019 9.39866 34145 ft 415 kts 201°
2026-05-04 20:17 44.34258 9.38782 33486 ft 413 kts 201°
2026-05-04 20:18 44.31497 9.37699 32820 ft 411 kts 200°
2026-05-04 20:18 44.28758 9.36625 32167 ft 413 kts 200°
2026-05-04 20:18 44.25983 9.35537 31497 ft 417 kts 200°
2026-05-04 20:18 44.23191 9.34444 30835 ft 421 kts 199°
2026-05-04 20:19 44.20355 9.33338 30174 ft 424 kts 199°
2026-05-04 20:19 44.17542 9.32241 29507 ft 428 kts 198°
2026-05-04 20:19 44.14663 9.31111 28832 ft 429 kts 199°
2026-05-04 20:19 44.11858 9.29847 28184 ft 427 kts 201°
2026-05-04 20:20 44.09069 9.28531 27523 ft 423 kts 201°
2026-05-04 20:20 44.06288 9.27225 26869 ft 420 kts 200°
2026-05-04 20:20 44.03543 9.25937 26226 ft 417 kts 200°
2026-05-04 20:20 44.00794 9.24649 25572 ft 414 kts 200°
2026-05-04 20:21 43.98085 9.23378 24916 ft 411 kts 200°
2026-05-04 20:21 43.95416 9.22125 24281 ft 408 kts 199°
2026-05-04 20:21 43.90102 9.19636 23006 ft 403 kts 199°
2026-05-04 20:22 43.87455 9.18399 22365 ft 401 kts 199°
2026-05-04 20:22 43.84814 9.17166 21725 ft 398 kts 199°
2026-05-04 20:22 43.82232 9.15961 21098 ft 396 kts 199°
2026-05-04 20:22 43.79665 9.14764 20900 ft 383 kts 199°
2026-05-04 20:23 43.77127 9.13581 20994 ft 383 kts 199°
2026-05-04 20:23 43.74607 9.12407 21028 ft 383 kts 199°
2026-05-04 20:23 43.72074 9.11227 21040 ft 382 kts 199°
2026-05-04 20:23 43.69583 9.10069 21045 ft 383 kts 199°
2026-05-04 20:24 43.67040 9.08887 21051 ft 383 kts 199°
2026-05-04 20:24 43.64539 9.07726 21053 ft 382 kts 199°
2026-05-04 20:24 43.62011 9.06553 21053 ft 382 kts 199°
2026-05-04 20:24 43.59512 9.05395 21049 ft 382 kts 199°
2026-05-04 20:25 43.56992 9.04227 21053 ft 382 kts 199°
2026-05-04 20:25 43.54454 9.03053 21051 ft 382 kts 199°
2026-05-04 20:25 43.51957 9.01896 21052 ft 382 kts 199°
2026-05-04 20:25 43.49416 9.00722 21051 ft 382 kts 199°
2026-05-04 20:26 43.46917 8.99569 21050 ft 382 kts 199°
2026-05-04 20:26 43.44400 8.98409 21050 ft 382 kts 199°
2026-05-04 20:26 43.41870 8.97254 21051 ft 382 kts 198°
2026-05-04 20:26 43.39333 8.96321 21050 ft 382 kts 194°
2026-05-04 20:27 43.36694 8.95662 21050 ft 383 kts 189°
2026-05-04 20:27 43.34050 8.95284 21051 ft 384 kts 187°
2026-05-04 20:27 43.31400 8.94972 21051 ft 384 kts 186°
2026-05-04 20:27 43.28735 8.94665 21050 ft 384 kts 186°
2026-05-04 20:28 43.26103 8.94362 21049 ft 384 kts 186°
2026-05-04 20:28 43.23441 8.94056 21049 ft 383 kts 187°
2026-05-04 20:28 43.20797 8.93750 21050 ft 383 kts 186°
2026-05-04 20:28 43.18139 8.93442 21049 ft 383 kts 186°
2026-05-04 20:29 43.15494 8.93137 21049 ft 383 kts 186°
2026-05-04 20:29 43.12834 8.92829 21049 ft 383 kts 186°
2026-05-04 20:29 43.10170 8.92522 21049 ft 383 kts 186°
2026-05-04 20:29 43.07532 8.92219 21050 ft 382 kts 186°
2026-05-04 20:30 43.04881 8.91914 21047 ft 382 kts 186°
2026-05-04 20:30 43.02230 8.91609 21053 ft 381 kts 186°
2026-05-04 20:30 42.99606 8.91307 21051 ft 381 kts 186°
2026-05-04 20:30 42.96962 8.91005 21044 ft 381 kts 187°
2026-05-04 20:31 42.94330 8.90702 21048 ft 382 kts 187°
2026-05-04 20:31 42.91674 8.90397 21047 ft 382 kts 187°
2026-05-04 20:31 42.89048 8.90095 21044 ft 382 kts 187°
2026-05-04 20:31 42.86365 8.89788 21044 ft 383 kts 187°
2026-05-04 20:32 42.83737 8.89486 21050 ft 383 kts 186°
2026-05-04 20:32 42.81087 8.89182 21053 ft 383 kts 187°
2026-05-04 20:32 42.78415 8.88877 21054 ft 383 kts 186°
2026-05-04 20:32 42.75781 8.88576 21059 ft 383 kts 186°
2026-05-04 20:33 42.73133 8.88274 21053 ft 382 kts 186°
2026-05-04 20:33 42.70484 8.87973 21052 ft 382 kts 186°
2026-05-04 20:33 42.67829 8.87671 21056 ft 382 kts 186°
2026-05-04 20:33 42.65180 8.87369 21060 ft 382 kts 186°
2026-05-04 20:34 42.62531 8.87067 21061 ft 383 kts 186°
2026-05-04 20:34 42.59878 8.86767 21062 ft 383 kts 186°
2026-05-04 20:34 42.57236 8.86468 21062 ft 383 kts 186°
2026-05-04 20:34 42.54578 8.86166 21060 ft 384 kts 186°
2026-05-04 20:35 42.51926 8.85867 21062 ft 384 kts 187°
2026-05-04 20:35 42.49251 8.85563 21065 ft 383 kts 186°
2026-05-04 20:35 42.46583 8.85261 21067 ft 383 kts 186°
2026-05-04 20:35 42.43928 8.84961 21066 ft 384 kts 187°
2026-05-04 20:36 42.41272 8.84661 21066 ft 384 kts 186°
2026-05-04 20:36 42.38605 8.84358 20752 ft 384 kts 186°
2026-05-04 20:36 42.35970 8.84061 20295 ft 381 kts 186°
2026-05-04 20:36 42.33337 8.83763 19814 ft 378 kts 186°
2026-05-04 20:37 42.30746 8.83471 19324 ft 374 kts 186°
2026-05-04 20:37 42.28173 8.83182 18830 ft 371 kts 186°
2026-05-04 20:37 42.25628 8.82896 18345 ft 367 kts 186°
2026-05-04 20:37 42.23082 8.82610 17854 ft 364 kts 186°
2026-05-04 20:38 42.20591 8.82334 17380 ft 361 kts 186°
2026-05-04 20:38 42.18106 8.82060 16894 ft 357 kts 186°
2026-05-04 20:38 42.15635 8.81784 16396 ft 355 kts 186°
2026-05-04 20:38 42.13187 8.81509 15889 ft 352 kts 187°
2026-05-04 20:39 42.10756 8.81239 15355 ft 350 kts 187°
2026-05-04 20:39 42.08349 8.80969 14840 ft 347 kts 187°
2026-05-04 20:39 42.05956 8.80703 14346 ft 344 kts 187°
2026-05-04 20:39 42.03592 8.80438 13881 ft 341 kts 188°
2026-05-04 20:40 42.01254 8.80177 13409 ft 338 kts 188°
2026-05-04 20:40 41.98930 8.79913 12929 ft 335 kts 188°
2026-05-04 20:40 41.96604 8.79650 12438 ft 334 kts 187°
2026-05-04 20:40 41.94294 8.79391 11966 ft 332 kts 187°
2026-05-04 20:41 41.92024 8.79136 11476 ft 331 kts 187°
2026-05-04 20:41 41.89735 8.78881 10982 ft 329 kts 187°
2026-05-04 20:41 41.87457 8.78627 10641 ft 322 kts 187°
2026-05-04 20:41 41.85253 8.78384 10443 ft 310 kts 188°
2026-05-04 20:42 41.83174 8.78155 10307 ft 297 kts 188°
2026-05-04 20:42 41.81134 8.77931 10179 ft 284 kts 188°
2026-05-04 20:42 41.79205 8.77717 10061 ft 273 kts 188°
2026-05-04 20:42 41.77313 8.77605 9704 ft 273 kts 182°
2026-05-04 20:43 41.75423 8.77754 9344 ft 274 kts 177°
2026-05-04 20:43 41.73534 8.78064 8992 ft 273 kts 176°
2026-05-04 20:43 41.71679 8.78383 8657 ft 271 kts 176°
2026-05-04 20:43 41.69798 8.78710 8311 ft 269 kts 176°
2026-05-04 20:44 41.67959 8.79031 7985 ft 267 kts 176°
2026-05-04 20:44 41.66113 8.79350 7650 ft 266 kts 176°
2026-05-04 20:44 41.64294 8.79662 7312 ft 264 kts 176°
2026-05-04 20:44 41.62482 8.79975 6985 ft 262 kts 175°
2026-05-04 20:45 41.60672 8.80286 6656 ft 261 kts 175°
2026-05-04 20:45 41.58869 8.80596 6322 ft 259 kts 176°
2026-05-04 20:45 41.57107 8.80896 5986 ft 258 kts 176°
2026-05-04 20:45 41.55333 8.81198 5654 ft 256 kts 175°
2026-05-04 20:46 41.53569 8.81498 5327 ft 254 kts 175°
2026-05-04 20:46 41.51815 8.81797 5051 ft 255 kts 175°
2026-05-04 20:46 41.50062 8.82311 4998 ft 261 kts 162°
2026-05-04 20:46 41.48419 8.83366 5000 ft 255 kts 153°
2026-05-04 20:47 41.46948 8.84565 4987 ft 240 kts 150°
2026-05-04 20:47 41.45594 8.85699 4988 ft 224 kts 150°
2026-05-04 20:47 41.44301 8.86778 4993 ft 215 kts 151°
2026-05-04 20:47 41.43047 8.87817 4996 ft 211 kts 152°
2026-05-04 20:48 41.41806 8.88836 4850 ft 206 kts 152°
2026-05-04 20:48 41.40583 8.89835 4418 ft 206 kts 151°
2026-05-04 20:48 41.39375 8.90850 3985 ft 205 kts 143°
2026-05-04 20:48 41.38599 8.92352 3654 ft 204 kts 102°
2026-05-04 20:49 41.38853 8.94173 3320 ft 207 kts 55°
2026-05-04 20:49 41.39919 8.95464 3218 ft 201 kts 38°
2026-05-04 20:49 41.40991 8.96558 3023 ft 194 kts 41°
2026-05-04 20:49 41.41997 8.97768 2673 ft 194 kts 46°
2026-05-04 20:50 41.42921 8.99036 2443 ft 186 kts 49°
2026-05-04 20:50 41.43770 9.00281 2247 ft 176 kts 50°
2026-05-04 20:50 41.44547 9.01430 2058 ft 156 kts 49°
2026-05-04 20:50 41.45231 9.02420 1935 ft 138 kts 48°
2026-05-04 20:51 41.45895 9.03324 1549 ft 140 kts 47°
2026-05-04 20:51 41.46538 9.04264 1219 ft 134 kts 50°
2026-05-04 20:51 41.47154 9.05161 902 ft 129 kts 48°
2026-05-04 20:51 41.47753 9.06037 585 ft 125 kts 49°
2026-05-04 20:52 41.48312 9.06891 364 ft 123 kts 50°
2026-05-04 20:52 41.48881 9.07753 219 ft 123 kts 46°
2026-05-04 20:52 41.49465 9.08590 106 ft 122 kts 47°
2026-05-04 20:52 41.50001 9.09373 64 ft 88 kts 48°
2026-05-04 20:53 41.50216 9.09686 71 ft 14 kts 47°
2026-05-04 20:53 41.50282 9.09785 72 ft 13 kts 49°
2026-05-04 20:53 41.50340 9.09872 73 ft 11 kts 47°
2026-05-04 20:53 41.50394 9.09948 73 ft 10 kts 46°
2026-05-04 20:54 41.50441 9.10013 74 ft 9 kts 46°
2026-05-04 20:54 41.50484 9.10071 74 ft 8 kts 45°
2026-05-04 20:54 41.50523 9.10123 75 ft 7 kts 45°
2026-05-04 20:54 41.50548 9.10159 75 ft 6 kts 48°